GW1722 Weather Reports


time (UTC)temp
C
wind
direction
speed
KPH
gust
KPH
rain 1hr
cm
rain 24hr
cm
rain mn
cm
humidity
%
barometer
mb
20260906191530 24 117 0.0 0.0 0.00 0.00 0.00 72 1020.5
20260906191029 24 117 0.0 0.0 0.00 0.00 0.00 74 1020.6
20260906190529 25 117 0.0 0.0 0.00 0.00 0.00 70 1020.6
20260906190024 25 118 0.0 0.0 0.00 0.00 0.00 67 1020.9
20260906185523 25 116 0.0 0.0 0.00 0.00 0.00 72 1020.9
20260906185022 25 117 0.0 0.0 0.00 0.00 0.00 70 1020.9
20260906184517 25 117 0.0 0.0 0.00 0.00 0.00 72 1021.0
20260906184013 25 116 0.0 0.0 0.00 0.00 0.00 70 1020.9
20260906183509 26 118 0.0 0.0 0.00 0.00 0.00 70 1021.0
20260906183004 24 117 0.0 0.0 0.00 0.00 0.00 74 1021.0
20260906182459 23 116 0.0 0.0 0.00 0.00 0.00 78 1020.8
20260906181955 24 116 0.0 0.0 0.00 0.00 0.00 76 1021.0
20260906181450 24 116 0.0 0.0 0.00 0.00 0.00 75 1020.7
20260906180946 25 116 0.0 0.0 0.00 0.00 0.00 69 1021.0
20260906180441 26 118 0.0 0.0 0.00 0.00 0.00 72 1021.0
20260906175938 26 120 0.0 0.0 0.00 0.00 0.00 68 1020.8
20260906175433 26 120 0.0 0.0 0.00 0.00 0.00 67 1021.0
20260906174932 27 118 0.0 0.0 0.00 0.00 0.00 66 1021.0
20260906174426 26 118 0.0 0.0 0.00 0.00 0.00 70 1021.1
20260906173921 26 116 0.0 0.0 0.00 0.00 0.00 68 1021.0
20260906173416 26 117 0.0 0.0 0.00 0.00 0.00 73 1020.9
20260906172915 25 119 0.0 0.0 0.00 0.00 0.00 71 1021.1
20260906172413 24 120 0.0 0.0 0.00 0.00 0.00 74 1021.3
20260906171907 25 119 0.0 0.0 0.00 0.00 0.00 70 1021.3
20260906171402 25 119 0.0 0.0 0.00 0.00 0.00 68 1021.1
20260906170858 25 119 0.0 0.0 0.00 0.00 0.00 69 1021.3
20260906170354 24 120 0.0 0.0 0.00 0.00 0.00 73 1021.2
20260906165850 25 120 0.0 0.0 0.00 0.00 0.00 71 1021.1
20260906165349 24 122 0.0 0.0 0.00 0.00 0.00 73 1021.4
20260906164844 25 120 0.0 0.0 0.00 0.00 0.00 75 1021.5
20260906164343 23 121 0.0 0.0 0.00 0.00 0.00 72 1021.8
20260906163839 25 122 0.0 0.0 0.00 0.00 0.00 74 1021.4
20260906163335 25 121 0.0 0.0 0.00 0.00 0.00 74 1021.4
20260906162833 25 121 0.0 0.0 0.00 0.00 0.00 72 1021.5
20260906162332 25 122 0.0 0.0 0.00 0.00 0.00 73 1021.7
20260906161827 25 123 0.0 0.0 0.00 0.00 0.00 73 1021.4
20260906161326 24 121 0.0 0.0 0.00 0.00 0.00 72 1021.5
20260906160825 24 122 0.0 0.0 0.00 0.00 0.00 71 1021.4
20260906160319 23 120 0.0 0.0 0.00 0.00 0.00 73 1021.5
20260906155817 24 121 0.0 0.0 0.00 0.00 0.00 72 1021.4
20260906155312 24 124 0.0 0.0 0.00 0.00 0.00 71 1021.8
20260906154808 23 124 0.0 0.0 0.00 0.00 0.00 72 1021.7
20260906154302 23 121 0.0 0.0 0.00 0.00 0.00 73 1021.5
20260906153801 23 123 0.0 0.0 0.00 0.00 0.00 71 1021.8
20260906153255 23 122 0.0 0.0 0.00 0.00 0.00 76 1021.9
20260906152750 23 122 0.0 0.0 0.00 0.00 0.00 73 1022.0
20260906152245 23 122 0.0 0.0 0.00 0.00 0.00 77 1021.8
20260906151744 22 122 0.0 0.0 0.00 0.00 0.00 76 1022.1
20260906151240 22 128 0.0 0.0 0.00 0.00 0.00 74 1022.2
20260906150735 22 124 0.0 0.0 0.00 0.00 0.00 74 1022.2
20260906150231 22 123 0.0 0.0 0.00 0.00 0.00 76 1022.1
20260906145730 22 124 0.0 0.0 0.00 0.00 0.00 79 1021.9
20260906145229 22 130 0.0 0.0 0.00 0.00 0.00 80 1021.9
20260906144724 22 130 0.0 0.0 0.00 0.00 0.00 83 1021.9
20260906144219 21 130 0.0 0.0 0.00 0.00 0.00 83 1022.2
20260906143718 21 118 0.0 0.0 0.00 0.00 0.00 84 1022.1
20260906143216 21 43 0.0 0.0 0.00 0.00 0.00 86 1022.1
20260906142715 20 104 0.0 0.0 0.00 0.00 0.00 86 1021.9
20260906142211 19 105 0.0 0.0 0.00 0.00 0.00 89 1022.1
20260906141709 18 89 0.0 0.0 0.00 0.00 0.00 97 1022.2
20260906141204 16 111 0.0 0.0 0.00 0.00 0.00 99 1022.0
20260906140704 16 44 0.0 0.0 0.00 0.00 0.00 99 1022.1
20260906140159 15 29 0.0 0.0 0.00 0.00 0.00 99 1021.9
20260906135655 15 30 0.0 0.0 0.00 0.00 0.00 99 1022.0
20260906135151 14 30 0.0 0.0 0.00 0.00 0.00 99 1021.9
20260906134647 14 30 0.0 0.0 0.00 0.00 0.00 99 1022.0
20260906134142 13 30 0.0 0.0 0.00 0.00 0.00 99 1022.1
20260906133637 13 30 0.0 0.0 0.00 0.00 0.00 99 1022.0
20260906133132 13 30 0.0 0.0 0.00 0.00 0.00 99 1022.0
20260906132627 12 30 0.0 0.0 0.00 0.00 0.00 99 1021.9
20260906132123 12 30 0.0 0.0 0.00 0.00 0.00 99 1022.0
20260906131618 12 30 0.0 0.0 0.00 0.00 0.00 99 1021.9
20260906131113 11 30 0.0 0.0 0.00 0.00 0.00 99 1021.9
20260906130609 11 30 0.0 0.0 0.00 0.00 0.00 99 1021.9
20260906130103 11 30 0.0 0.0 0.00 0.00 0.00 99 1022.0
20260906125600 10 30 0.0 0.0 0.00 0.00 0.00 99 1021.9
20260906125054 10 30 0.0 0.0 0.00 0.00 0.00 99 1021.8
20260906124550 10 30 0.0 0.0 0.00 0.00 0.00 99 1021.8
20260906124045 10 30 0.0 0.0 0.00 0.00 0.00 99 1021.7
20260906123544 10 30 0.0 0.0 0.00 0.00 0.00 99 1021.8
20260906123039 10 30 0.0 0.0 0.00 0.00 0.00 99 1021.8
20260906122538 10 29 0.0 0.0 0.00 0.00 0.00 99 1021.9
20260906122035 10 29 0.0 0.0 0.00 0.00 0.00 99 1021.9
20260906121531 10 29 0.0 0.0 0.00 0.00 0.00 99 1021.7
20260906121027 9 29 0.0 0.0 0.00 0.00 0.00 99 1021.5
20260906120522 9 29 0.0 0.0 0.00 0.00 0.00 99 1021.8
20260906120020 10 29 0.0 0.0 0.00 0.00 0.00 99 1021.5
20260906115519 9 29 0.0 0.0 0.00 0.00 0.00 99 1021.4
20260906115014 9 29 0.0 0.0 0.00 0.00 0.00 99 1021.4
20260906114508 9 28 0.0 0.0 0.00 0.00 0.00 99 1021.4
20260906114004 9 28 0.0 0.0 0.00 0.00 0.00 99 1021.4
20260906113503 9 28 0.0 0.0 0.00 0.00 0.00 99 1021.3
20260906112958 10 28 0.0 0.0 0.00 0.00 0.00 99 1021.3
20260906112453 10 28 0.0 0.0 0.00 0.00 0.00 99 1021.4
20260906111949 10 28 0.0 0.0 0.00 0.00 0.00 99 1021.5
20260906111448 10 28 0.0 0.0 0.00 0.00 0.00 99 1021.4
20260906110944 10 28 0.0 0.0 0.00 0.00 0.00 99 1021.0
20260906110439 10 28 0.0 0.0 0.00 0.00 0.00 99 1021.1
20260906105937 10 28 0.0 0.0 0.00 0.00 0.00 99 1020.9
20260906105434 10 28 0.0 0.0 0.00 0.00 0.00 99 1021.1
20260906104930 10 28 0.0 0.0 0.00 0.00 0.00 99 1021.1
20260906104428 10 28 0.0 0.0 0.00 0.00 0.00 99 1021.0
20260906103927 10 28 0.0 0.0 0.00 0.00 0.00 99 1021.1
20260906103426 10 28 0.0 0.0 0.00 0.00 0.00 99 1021.0
20260906102921 10 28 0.0 0.0 0.00 0.00 0.00 99 1020.8
20260906102421 10 28 0.0 0.0 0.00 0.00 0.00 99 1021.0
20260906101915 10 28 0.0 0.0 0.00 0.00 0.00 99 1020.9
20260906101411 10 28 0.0 0.0 0.00 0.00 0.00 99 1021.1
20260906100906 10 28 0.0 0.0 0.00 0.00 0.00 99 1021.1
20260906100406 10 28 0.0 0.0 0.00 0.00 0.00 99 1021.0
20260906095900 10 28 0.0 0.0 0.00 0.00 0.00 99 1020.8
20260906095355 10 28 0.0 0.0 0.00 0.00 0.00 99 1021.0
20260906094850 10 28 0.0 0.0 0.00 0.00 0.00 99 1020.8
20260906094345 10 28 0.0 0.0 0.00 0.00 0.00 99 1021.0
20260906093841 10 28 0.0 0.0 0.00 0.00 0.00 99 1020.9
20260906093337 10 28 0.0 0.0 0.00 0.00 0.00 99 1020.9
20260906092832 10 28 0.0 0.0 0.00 0.00 0.00 99 1021.1
20260906092331 10 28 0.0 0.0 0.00 0.00 0.00 99 1020.8
20260906091827 10 28 0.0 0.0 0.00 0.00 0.00 99 1021.0
20260906091323 10 27 0.0 0.0 0.00 0.00 0.00 99 1021.2
20260906090820 10 27 0.0 0.0 0.00 0.00 0.00 99 1021.1
20260906090318 11 28 0.0 0.0 0.00 0.00 0.00 99 1021.1
20260906085813 11 28 0.0 0.0 0.00 0.00 0.00 99 1020.9
20260906085311 11 28 0.0 0.0 0.00 0.00 0.00 99 1020.7
20260906084807 11 28 0.0 0.0 0.00 0.00 0.00 99 1020.9
20260906084306 11 28 0.0 0.0 0.00 0.00 0.00 99 1020.9
20260906083801 11 28 0.0 0.0 0.00 0.00 0.00 99 1020.8
20260906083257 10 28 0.0 0.0 0.00 0.00 0.00 99 1020.8
20260906082751 10 28 0.0 0.0 0.00 0.00 0.00 99 1020.7
20260906082246 10 28 0.0 0.0 0.00 0.00 0.00 99 1020.8
20260906081742 11 28 0.0 0.0 0.00 0.00 0.00 99 1020.7
20260906081238 11 28 0.0 0.0 0.00 0.00 0.00 99 1020.7
20260906080734 11 28 0.0 0.0 0.00 0.00 0.00 99 1020.7
20260906080230 11 28 0.0 0.0 0.00 0.00 0.00 99 1020.4
20260906075729 11 28 0.0 0.0 0.00 0.00 0.00 99 1020.3
20260906075224 11 28 0.0 0.0 0.00 0.00 0.00 99 1020.6
20260906074720 11 29 0.0 0.0 0.00 0.00 0.00 99 1020.6
20260906074218 11 29 0.0 0.0 0.00 0.00 0.00 99 1020.7
20260906073713 11 29 0.0 0.0 0.00 0.00 0.00 99 1020.6
20260906073208 11 28 0.0 0.0 0.00 0.00 0.00 99 1020.4
20260906072704 11 29 0.0 0.0 0.00 0.00 0.00 99 1020.5
20260906072159 12 29 0.0 0.0 0.00 0.00 0.00 99 1020.5
20260906071655 12 28 0.0 0.0 0.00 0.00 0.00 99 1020.5
20260906071155 12 28 0.0 0.0 0.00 0.00 0.00 99 1020.3
20260906070652 11 28 0.0 0.0 0.00 0.00 0.00 99 1020.3
20260906070147 11 28 0.0 0.0 0.00 0.00 0.00 99 1020.5
20260906065647 11 30 0.0 0.0 0.00 0.00 0.00 99 1020.4
20260906065142 11 30 0.0 0.0 0.00 0.00 0.00 99 1020.5
20260906064638 11 29 0.0 0.0 0.00 0.00 0.00 99 1020.4
20260906064133 12 29 0.0 0.0 0.00 0.00 0.00 99 1020.4
20260906063628 12 30 0.0 0.0 0.00 0.00 0.00 99 1020.4
20260906063124 12 28 0.0 0.0 0.00 0.00 0.00 99 1020.3
20260906062619 12 28 0.0 0.0 0.00 0.00 0.00 99 1020.4
20260906062118 12 28 0.0 0.0 0.00 0.00 0.00 99 1020.4
20260906061614 12 28 0.0 0.0 0.00 0.00 0.00 99 1020.3
20260906061114 12 28 0.0 0.0 0.00 0.00 0.00 99 1020.1
20260906060611 12 28 0.0 0.0 0.00 0.00 0.00 99 1020.3
20260906060108 12 29 0.0 0.0 0.00 0.00 0.00 99 1020.2
20260906055603 12 29 0.0 0.0 0.00 0.00 0.00 99 1020.1
20260906055058 12 29 0.0 0.0 0.00 0.00 0.00 99 1020.1
20260906054558 12 29 0.0 0.0 0.00 0.00 0.00 99 1020.2
20260906054053 12 29 0.0 0.0 0.00 0.00 0.00 99 1020.1
20260906053550 12 29 0.0 0.0 0.00 0.00 0.00 99 1019.8
20260906053045 12 29 0.0 0.0 0.00 0.00 0.00 99 1020.0
20260906052540 12 28 0.0 0.0 0.00 0.00 0.00 99 1019.9
20260906052038 12 29 0.0 0.0 0.00 0.00 0.00 99 1019.8
20260906051533 12 28 0.0 0.0 0.00 0.00 0.00 99 1019.8
20260906051028 12 28 0.0 0.0 0.00 0.00 0.00 99 1019.9
20260906050523 12 29 0.0 0.0 0.00 0.00 0.00 99 1020.1
20260906050018 13 28 0.0 0.0 0.00 0.00 0.00 99 1019.8
20260906045516 13 28 0.0 0.0 0.00 0.00 0.00 99 1019.8
20260906045012 13 29 0.0 0.0 0.00 0.00 0.00 99 1019.8
20260906044508 13 29 0.0 0.0 0.00 0.00 0.00 99 1019.9
20260906044003 13 29 0.0 0.0 0.00 0.00 0.00 99 1020.0
20260906043458 13 29 0.0 0.0 0.00 0.00 0.00 99 1020.0
20260906042949 13 29 0.0 0.0 0.00 0.00 0.00 99 1019.8
20260906042448 13 27 0.0 0.0 0.00 0.00 0.00 99 1019.6
20260906041948 13 27 0.0 0.0 0.00 0.00 0.00 99 1019.8
20260906041444 13 27 0.0 0.0 0.00 0.00 0.00 99 1019.7
20260906040943 13 27 0.0 0.0 0.00 0.00 0.00 99 1019.7
20260906040438 13 27 0.0 0.0 0.00 0.00 0.00 99 1019.6
20260906035934 13 27 0.0 0.0 0.00 0.00 0.00 99 1019.5
20260906035429 13 27 0.0 0.0 0.00 0.00 0.00 99 1019.3
20260906034924 13 27 0.0 0.0 0.00 0.00 0.00 99 1019.5
20260906034419 14 27 0.0 0.0 0.00 0.00 0.00 99 1019.5
20260906033915 14 27 0.0 0.0 0.00 0.00 0.00 99 1019.5
20260906033415 14 27 0.0 0.0 0.00 0.00 0.00 99 1019.4
20260906032910 14 28 0.0 0.0 0.00 0.00 0.00 99 1019.5
20260906032406 14 28 0.0 0.0 0.00 0.00 0.00 99 1019.5
20260906031901 14 28 0.0 0.0 0.00 0.00 0.00 99 1019.5
20260906031356 14 28 0.0 0.0 0.00 0.00 0.00 99 1019.7
20260906030851 15 28 0.0 0.0 0.00 0.00 0.00 99 1019.4
20260906030346 15 28 0.0 0.0 0.00 0.00 0.00 99 1019.5
20260906025841 15 28 0.0 0.0 0.00 0.00 0.00 99 1019.5
20260906025335 15 28 0.0 0.0 0.00 0.00 0.00 98 1019.6
20260906024834 15 28 0.0 0.0 0.00 0.00 0.00 98 1019.5
20260906024333 15 28 0.0 0.0 0.00 0.00 0.00 97 1019.6
20260906023829 15 28 0.0 0.0 0.00 0.00 0.00 97 1019.2
20260906023324 15 28 0.0 0.0 0.00 0.00 0.00 97 1019.3
20260906022819 15 28 0.0 0.0 0.00 0.00 0.00 97 1019.2
20260906022314 15 28 0.0 0.0 0.00 0.00 0.00 96 1019.2
20260906021810 15 28 0.0 0.0 0.00 0.00 0.00 96 1019.3
20260906021304 16 28 0.0 0.0 0.00 0.00 0.00 96 1019.1
20260906020759 16 28 0.0 0.0 0.00 0.00 0.00 95 1019.5
20260906020259 16 28 0.0 0.0 0.00 0.00 0.00 94 1019.3
20260906015758 16 28 0.0 0.0 0.00 0.00 0.00 94 1019.2
20260906015257 16 28 0.0 0.0 0.00 0.00 0.00 94 1019.4
20260906014752 16 29 0.0 0.0 0.00 0.00 0.00 94 1019.4
20260906014247 16 29 0.0 0.0 0.00 0.00 0.00 95 1019.5
20260906013743 16 29 0.0 0.0 0.00 0.00 0.00 94 1019.4
20260906013243 16 29 0.0 0.0 0.00 0.00 0.00 93 1019.3
20260906012739 16 29 0.0 0.0 0.00 0.00 0.00 93 1019.1
20260906012233 17 31 0.0 0.0 0.00 0.00 0.00 93 1019.2
20260906011729 17 31 0.0 0.0 0.00 0.00 0.00 93 1018.9
20260906011223 17 31 0.0 0.0 0.00 0.00 0.00 92 1019.0
20260906010718 17 31 0.0 0.0 0.00 0.00 0.00 92 1019.1
20260906010214 17 31 0.0 0.0 0.00 0.00 0.00 91 1019.0
20260906005709 17 31 0.0 0.0 0.00 0.00 0.00 91 1019.0
20260906005209 17 31 0.0 0.0 0.00 0.00 0.00 90 1019.1
20260906004708 17 31 0.0 0.0 0.00 0.00 0.00 90 1019.2
20260906004203 18 31 0.0 0.0 0.00 0.00 0.00 91 1019.0
20260906003658 18 31 0.0 0.0 0.00 0.00 0.00 90 1019.0
20260906003153 18 34 0.0 0.0 0.00 0.00 0.00 89 1019.0
20260906002648 18 34 0.0 0.0 0.00 0.00 0.00 90 1019.0
20260906002142 18 34 0.0 0.0 0.00 0.00 0.00 90 1019.0
20260906001637 19 34 0.0 0.0 0.00 0.00 0.00 89 1019.1
20260906001132 19 34 0.0 0.0 0.00 0.00 0.00 88 1018.9
20260906000628 20 34 0.0 0.0 0.00 0.00 0.00 88 1018.7
20260906000123 20 357 0.0 0.0 0.00 0.00 0.00 88 1018.7
20260905235622 20 297 0.0 0.0 0.00 0.00 0.00 85 1018.8
20260905235117 20 30 0.0 0.0 0.00 0.00 0.00 86 1018.5
20260905234612 20 29 0.0 0.0 0.00 0.00 0.00 85 1018.7
20260905234107 20 29 0.0 0.0 0.00 0.00 0.00 85 1018.7
20260905233602 21 31 0.0 0.0 0.00 0.00 0.00 86 1018.5
20260905233057 21 50 0.0 0.0 0.00 0.00 0.00 85 1018.5
20260905232552 21 355 0.0 0.0 0.00 0.00 0.00 84 1018.4
20260905232048 21 354 0.0 0.0 0.00 0.00 0.00 82 1018.4
20260905231542 21 342 0.0 0.0 0.00 0.00 0.00 82 1018.9
20260905231039 22 314 0.0 0.0 0.00 0.00 0.00 81 1018.5
20260905230538 22 349 0.0 0.0 0.00 0.00 0.00 82 1018.3
20260905230036 22 339 0.0 0.0 0.00 0.00 0.00 82 1018.5
20260905225531 22 350 0.0 0.0 0.00 0.00 0.00 81 1018.1
20260905225027 22 358 0.0 0.0 0.00 0.00 0.00 83 1018.1
20260905224521 22 335 0.0 0.0 0.00 0.00 0.00 81 1018.0
20260905224020 22 2 0.0 0.0 0.00 0.00 0.00 80 1018.5
20260905223519 22 312 0.0 0.0 0.00 0.00 0.00 78 1018.6
20260905223014 23 343 0.0 0.0 0.00 0.00 0.00 81 1018.4
20260905222514 23 346 0.0 0.0 0.00 0.00 0.00 79 1018.3
20260905222009 23 350 0.0 0.0 0.00 0.00 0.00 78 1018.4
20260905221505 24 5 0.0 0.0 0.00 0.00 0.00 76 1018.1
20260905221001 24 359 0.0 0.0 0.00 0.00 0.00 72 1018.3
20260905220457 24 307 0.0 0.0 0.00 0.00 0.00 74 1018.4
20260905215956 24 338 0.0 0.0 0.00 0.00 0.00 71 1018.4
20260905215452 25 337 0.0 0.0 0.00 0.00 0.00 69 1018.0
20260905214948 25 237 0.0 0.0 0.00 0.00 0.00 67 1018.1
20260905214443 25 234 0.0 0.0 0.00 0.00 0.00 67 1018.0
20260905213938 25 288 0.0 0.0 0.00 0.00 0.00 68 1018.0
20260905213434 25 271 0.0 0.0 0.00 0.00 0.00 68 1017.9
20260905212929 25 305 0.0 0.0 0.00 0.00 0.00 68 1018.0
20260905212424 25 302 0.0 0.0 0.00 0.00 0.00 69 1018.1
20260905211923 24 321 0.0 0.0 0.00 0.00 0.00 66 1017.7
20260905211419 24 320 0.0 0.0 0.00 0.00 0.00 72 1017.9
20260905210914 23 53 0.0 0.0 0.00 0.00 0.00 74 1017.8
20260905210409 23 53 0.0 0.0 0.00 0.00 0.00 74 1018.0
20260905205909 24 53 0.0 0.0 0.00 0.00 0.00 70 1018.0
20260905205403 25 53 0.0 0.0 0.00 0.00 0.00 73 1017.9
20260905204902 25 53 0.0 0.0 0.00 0.00 0.00 65 1017.8
20260905204359 26 151 0.0 0.0 0.00 0.00 0.00 60 1017.8
20260905203857 26 7 0.0 0.0 0.00 0.00 0.00 68 1017.8
20260905203353 27 271 0.0 0.0 0.00 0.00 0.00 63 1017.9
20260905202848 26 268 0.0 0.0 0.00 0.00 0.00 58 1017.9
20260905202343 26 227 0.0 0.0 0.00 0.00 0.00 65 1018.0
20260905201838 26 276 0.0 0.0 0.00 0.00 0.00 61 1018.1
20260905201334 25 270 0.0 0.0 0.00 0.00 0.00 67 1017.9
20260905200828 24 282 0.0 0.0 0.00 0.00 0.00 66 1018.1
20260905200326 24 293 0.0 0.0 0.00 0.00 0.00 70 1018.1
20260905195822 26 312 0.0 0.0 0.00 0.00 0.00 64 1018.0
20260905195317 27 337 0.0 0.0 0.00 0.00 0.00 63 1017.9
20260905194813 27 276 0.0 0.0 0.00 0.00 0.00 62 1018.1
20260905194307 26 277 0.0 0.0 0.00 0.00 0.00 64 1018.3
20260905193806 25 341 0.0 0.0 0.00 0.00 0.00 64 1018.6
20260905193301 24 342 0.0 0.0 0.00 0.00 0.00 76 1018.4
20260905192756 23 343 0.0 0.0 0.00 0.00 0.00 77 1018.3
20260905192253 23 343 0.0 0.0 0.00 0.00 0.00 74 1018.7
20260905191752 25 342 0.0 0.0 0.00 0.00 0.00 73 1018.4